KD0KHX-10 Weather Reports


time (UTC)temp
C
wind
direction
speed
KPH
gust
KPH
rain 1hr
cm
rain 24hr
cm
rain mn
cm
humidity
%
barometer
mb
20260504192217 26 67 6.4 16.1 0.00 0.00 0.00 20 998.1
20260504191503 26 21 8.0 17.7 0.00 0.00 0.00 18 998.2
20260504191003 26 309 8.0 17.7 0.00 0.00 0.00 19 998.4
20260504190718 26 273 8.0 17.7 0.00 0.00 0.00 19 998.4
20260504190003 26 225 12.9 22.5 0.00 0.00 0.00 19 998.4
20260504185503 26 229 11.3 22.5 0.00 0.00 0.00 19 998.4
20260504185003 26 216 8.0 16.1 0.00 0.00 0.00 19 998.4
20260504184718 26 209 6.4 14.5 0.00 0.00 0.00 20 998.5
20260504184432 26 228 8.0 14.5 0.00 0.00 0.00 19 998.5
20260504183503 26 23 8.0 19.3 0.00 0.00 0.00 20 998.6
20260504183003 26 356 9.7 16.1 0.00 0.00 0.00 18 998.7
20260504182717 26 345 9.7 22.5 0.00 0.00 0.00 19 998.8
20260504182003 26 10 8.0 22.5 0.00 0.00 0.00 21 998.8
20260504181503 26 8 9.7 19.3 0.00 0.00 0.00 20 998.9
20260504181007 26 12 9.7 22.5 0.00 0.00 0.00 19 999.1
20260504180503 25 31 9.7 22.5 0.00 0.00 0.00 22 999.1
20260504180003 25 38 11.3 19.3 0.00 0.00 0.00 22 999.2
20260504175932 25 36 11.3 19.3 0.00 0.00 0.00 23 999.3
20260504175216 24 37 11.3 22.5 0.00 0.00 0.00 23 999.3
20260504174717 24 29 14.5 24.1 0.00 0.00 0.00 22 999.4
20260504174003 25 19 17.7 24.1 0.00 0.00 0.00 22 999.4
20260504173503 25 20 17.7 25.7 0.00 0.00 0.00 22 999.5
20260504173003 26 15 19.3 29.0 0.00 0.00 0.00 22 999.5
20260504172932 26 16 19.3 29.0 0.00 0.00 0.00 22 999.5
20260504172003 25 6 17.7 27.4 0.00 0.00 0.00 21 999.5
20260504171932 25 6 17.7 27.4 0.00 0.00 0.00 22 999.5
20260504171433 25 7 17.7 25.7 0.00 0.00 0.00 23 999.7
20260504170503 25 5 17.7 25.7 0.00 0.00 0.00 22 999.7
20260504150503 21 270 16.1 24.1 0.00 0.00 0.00 30 999.9
20260504141003 16 294 12.9 19.3 0.00 0.00 0.00 47 1000.4
20260504140503 15 283 12.9 16.1 0.00 0.00 0.00 49 1000.4
20260504130503 8 300 12.9 17.7 0.00 0.00 0.00 65 1000.1
20260504110503 4 269 6.4 14.5 0.00 0.00 0.00 71 999.5
20260504110218 4 255 6.4 14.5 0.00 0.00 0.00 71 999.6
20260504100503 5 243 6.4 8.0 0.00 0.00 0.00 69 999.9
20260504082003 7 282 4.8 6.4 0.00 0.00 0.00 66 1000.7
20260504081933 7 282 4.8 6.4 0.00 0.00 0.00 66 1000.7
20260504081003 7 282 6.4 9.7 0.00 0.00 0.00 66 1000.8
20260504080718 7 282 4.8 6.4 0.00 0.00 0.00 66 1000.9
20260504050003 12 112 6.4 9.7 0.00 0.00 0.00 52 1001.9
20260504045503 12 97 8.0 11.3 0.00 0.00 0.00 52 1002.0
20260504045003 11 92 6.4 11.3 0.00 0.00 0.00 51 1002.0
20260504044503 11 95 3.2 9.7 0.00 0.00 0.00 52 1002.0
20260504044217 11 93 1.6 4.8 0.00 0.00 0.00 51 1002.0
20260504043503 11 86 1.6 4.8 0.00 0.00 0.00 50 1002.1
20260504043003 11 86 3.2 11.3 0.00 0.00 0.00 49 1002.2
20260504042933 11 86 3.2 11.3 0.00 0.00 0.00 49 1002.2
20260504042003 12 88 9.7 11.3 0.00 0.00 0.00 49 1002.3
20260504041503 12 76 9.7 14.5 0.00 0.00 0.00 48 1002.3
20260504041003 12 62 11.3 14.5 0.00 0.00 0.00 49 1002.4
20260504040503 12 49 9.7 12.9 0.00 0.00 0.00 48 1002.3
20260504040003 12 51 11.3 17.7 0.00 0.00 0.00 47 1002.4
20260504035503 13 69 14.5 19.3 0.00 0.00 0.00 45 1002.4
20260504035003 13 78 16.1 19.3 0.00 0.00 0.00 44 1002.4
20260504034503 13 80 16.1 17.7 0.00 0.00 0.00 44 1002.4
20260504034432 13 81 16.1 17.7 0.00 0.00 0.00 44 1002.4
20260504033718 14 81 16.1 19.3 0.00 0.00 0.00 43 1002.4
20260504033217 15 82 16.1 19.3 0.00 0.00 0.00 42 1002.4
20260504032503 15 79 14.5 17.7 0.00 0.00 0.00 41 1002.4
20260504032432 15 78 14.5 17.7 0.00 0.00 0.00 41 1002.4
20260504031503 15 76 16.1 19.3 0.00 0.00 0.00 40 1002.4
20260504031432 15 77 16.1 19.3 0.00 0.00 0.00 40 1002.4
20260504030503 15 76 14.5 17.7 0.00 0.00 0.00 39 1002.4
20260504030003 15 77 16.1 19.3 0.00 0.00 0.00 38 1002.3
20260504025503 15 79 16.1 19.3 0.00 0.00 0.00 37 1002.2
20260504025217 15 78 16.1 19.3 0.00 0.00 0.00 37 1002.1
20260504024503 15 76 14.5 19.3 0.00 0.00 0.00 38 1002.1
20260504024003 15 67 9.7 16.1 0.00 0.00 0.00 38 1002.1
20260504023718 15 57 8.0 14.5 0.00 0.00 0.00 38 1002.0
20260504023432 15 54 8.0 14.5 0.00 0.00 0.00 37 1002.0
20260504022503 17 66 16.1 19.3 0.00 0.00 0.00 34 1002.0
20260504022003 17 66 16.1 20.9 0.00 0.00 0.00 33 1002.0
20260504021503 17 69 17.7 20.9 0.00 0.00 0.00 32 1001.9
20260504021216 18 70 17.7 20.9 0.00 0.00 0.00 32 1001.9
20260504020503 18 68 17.7 20.9 0.00 0.00 0.00 32 1001.8
20260504020433 18 67 17.7 20.9 0.00 0.00 0.00 32 1001.8
20260504015503 19 68 17.7 20.9 0.00 0.00 0.00 31 1001.8
20260504015433 19 69 17.7 20.9 0.00 0.00 0.00 31 1001.8
20260504014503 19 72 16.1 19.3 0.00 0.00 0.00 29 1001.7
20260504014003 20 66 16.1 20.9 0.00 0.00 0.00 28 1001.8
20260504013717 20 62 16.1 20.9 0.00 0.00 0.00 28 1001.8
20260504013003 20 53 17.7 20.9 0.00 0.00 0.00 27 1001.8
20260504012717 21 50 14.5 20.9 0.00 0.00 0.00 26 1001.7
20260504012003 21 48 12.9 17.7 0.00 0.00 0.00 25 1001.7
20260504011503 21 49 12.9 17.7 0.00 0.00 0.00 23 1001.7
20260504011433 21 49 12.9 17.7 0.00 0.00 0.00 23 1001.7
20260504010503 22 46 9.7 14.5 0.00 0.00 0.00 22 1001.7
20260504010003 23 43 9.7 14.5 0.00 0.00 0.00 21 1001.8
20260504005932 23 42 9.7 14.5 0.00 0.00 0.00 21 1001.8
20260504005004 24 40 12.9 17.7 0.00 0.00 0.00 20 1001.8
20260504004503 24 35 12.9 17.7 0.00 0.00 0.00 20 1001.8
20260504004003 24 31 11.3 16.1 0.00 0.00 0.00 21 1001.9
20260504003503 24 31 9.7 14.5 0.00 0.00 0.00 22 1001.9
20260504003003 23 32 9.7 14.5 0.00 0.00 0.00 23 1001.9
20260504002503 23 30 11.3 14.5 0.00 0.00 0.00 22 1002.0
20260504002003 23 29 11.3 14.5 0.00 0.00 0.00 23 1002.0
20260504001503 23 22 11.3 14.5 0.00 0.00 0.00 23 1002.0
20260504001218 23 15 11.3 14.5 0.00 0.00 0.00 23 1002.0
20260504000717 23 11 9.7 14.5 0.00 0.00 0.00 23 1002.1
20260504000433 24 15 8.0 14.5 0.00 0.00 0.00 22 1002.1
20260503235503 25 4 11.3 17.7 0.00 0.00 0.00 20 1002.2
20260503235003 25 4 14.5 17.7 0.00 0.00 0.00 18 1002.2
20260503234503 26 4 16.1 19.3 0.00 0.00 0.00 18 1002.2
20260503234217 26 1 16.1 19.3 0.00 0.00 0.00 18 1002.3
20260503233503 26 5 11.3 17.7 0.00 0.00 0.00 19 1002.3
20260503233003 26 31 6.4 16.1 0.00 0.00 0.00 18 1002.3
20260503232503 26 29 4.8 14.5 0.00 0.00 0.00 16 1002.3
20260503232003 26 34 8.0 14.5 0.00 0.00 0.00 17 1002.3
20260503231716 26 38 9.7 14.5 0.00 0.00 0.00 17 1002.3
20260503231003 26 25 11.3 17.7 0.00 0.00 0.00 19 1002.3
20260503230503 26 6 12.9 19.3 0.00 0.00 0.00 19 1002.4
20260503230003 26 360 12.9 19.3 0.00 0.00 0.00 19 1002.5
20260503225503 26 10 11.3 25.7 0.00 0.00 0.00 18 1002.5
20260503225003 26 28 8.0 25.7 0.00 0.00 0.00 19 1002.5
20260503224503 26 57 6.4 14.5 0.00 0.00 0.00 18 1002.6
20260503224217 26 65 6.4 14.5 0.00 0.00 0.00 18 1002.5
20260503223933 26 65 4.8 12.9 0.00 0.00 0.00 18 1002.6
20260503223003 26 9 9.7 20.9 0.00 0.00 0.00 18 1002.7
20260503222503 26 360 9.7 19.3 0.00 0.00 0.00 18 1002.7
20260503222003 27 359 11.3 19.3 0.00 0.00 0.00 19 1002.7
20260503221718 27 352 9.7 19.3 0.00 0.00 0.00 18 1002.7
20260503221217 26 10 9.7 19.3 0.00 0.00 0.00 18 1002.8
20260503220503 26 42 3.2 12.9 0.00 0.00 0.00 18 1003.0
20260503220003 26 28 3.2 12.9 0.00 0.00 0.00 18 1003.1
20260503215718 26 32 6.4 16.1 0.00 0.00 0.00 18 1003.1
20260503215003 26 36 6.4 16.1 0.00 0.00 0.00 17 1003.1
20260503214503 26 42 3.2 14.5 0.00 0.00 0.00 18 1003.2
20260503214003 26 30 6.4 16.1 0.00 0.00 0.00 17 1003.4
20260503213933 26 30 6.4 16.1 0.00 0.00 0.00 17 1003.4
20260503213003 26 19 8.0 17.7 0.00 0.00 0.00 18 1003.4
20260503212503 27 340 8.0 17.7 0.00 0.00 0.00 19 1003.6
20260503212003 27 335 9.7 16.1 0.00 0.00 0.00 19 1003.6
20260503211503 26 345 8.0 16.1 0.00 0.00 0.00 20 1003.6
20260503211003 26 5 8.0 17.7 0.00 0.00 0.00 21 1003.8
20260503210503 25 37 8.0 17.7 0.00 0.00 0.00 21 1003.9
20260503210003 25 58 9.7 22.5 0.00 0.00 0.00 21 1004.0
20260503205503 25 32 14.5 24.1 0.00 0.00 0.00 20 1004.1
20260503205003 26 13 16.1 24.1 0.00 0.00 0.00 20 1004.2
20260503204503 26 4 9.7 20.9 0.00 0.00 0.00 21 1004.3
20260503204003 26 348 6.4 16.1 0.00 0.00 0.00 20 1004.3
20260503203503 25 12 9.7 19.3 0.00 0.00 0.00 21 1004.4
20260503203003 25 26 11.3 19.3 0.00 0.00 0.00 21 1004.4
20260503202932 25 25 11.3 19.3 0.00 0.00 0.00 21 1004.4
20260503202003 25 2 16.1 24.1 0.00 0.00 0.00 21 1004.6
20260503201717 25 10 12.9 24.1 0.00 0.00 0.00 22 1004.7
20260503201433 25 23 11.3 24.1 0.00 0.00 0.00 21 1004.7
20260503200932 25 15 9.7 20.9 0.00 0.00 0.00 21 1004.7
20260503200003 25 14 12.9 25.7 0.00 0.00 0.00 20 1004.9
20260503195503 26 12 12.9 22.5 0.00 0.00 0.00 21 1004.8
20260503195003 25 10 16.1 25.7 0.00 0.00 0.00 21 1004.8
20260503194503 25 19 19.3 29.0 0.00 0.00 0.00 21 1004.8
20260503194218 25 26 17.7 29.0 0.00 0.00 0.00 22 1004.9
20260503193503 25 37 17.7 29.0 0.00 0.00 0.00 21 1005.0
20260503193003 25 20 14.5 29.0 0.00 0.00 0.00 21 1004.9